This is the latest recevied weather packets stored in our database for station/object N5SOR-1. If no packets are shown the sender has not sent any weather packets the latest 10 day(s).
| Time | Temp. | Humidity | Pressure | Rain* | Wind** | Luminosity | Snow |
|---|---|---|---|---|---|---|---|
| 1777653160 | 13.33° C | 88% | 1014.2 hPa | 0 mm | - | 299 W/m² | - |
| 1777652499 | 13.33° C | 88% | 1014.3 hPa | 0 mm | - | 352 W/m² | - |
| 1777651839 | 12.78° C | 88% | 1014.3 hPa | 0.25 mm | - | 186 W/m² | - |
| 1777651179 | 12.78° C | 88% | 1014.7 hPa | 2.29 mm | - | 153 W/m² | - |
| 1777650517 | 12.22° C | 88% | 1014.2 hPa | 8.13 mm | - | 144 W/m² | - |
| 1777649857 | 12.22° C | 88% | 1013.8 hPa | 18.03 mm | - | 104 W/m² | - |
| 1777649196 | 12.22° C | 88% | 1013.6 hPa | 20.32 mm | - | 60 W/m² | - |
| 1777648535 | 12.22° C | 88% | 1013.3 hPa | 21.84 mm | - | 25 W/m² | - |
| 1777647875 | 12.22° C | 88% | 1015.2 hPa | 22.35 mm | - | 14 W/m² | - |
| 1777647215 | 12.22° C | 88% | 1014.7 hPa | 20.83 mm | - | 14 W/m² | - |
| 1777646554 | 12.22° C | 88% | 1014.5 hPa | 10.67 mm | - | 11 W/m² | - |
| 1777645893 | 12.78° C | 88% | 1014.6 hPa | 4.06 mm | - | 0 W/m² | - |
| 1777645233 | 12.78° C | 88% | 1013.8 hPa | 2.29 mm | - | 12 W/m² | - |
| 1777644573 | 12.78° C | 87% | 1013.1 hPa | 0.51 mm | - | 5 W/m² | - |
| 1777643912 | 12.78° C | 87% | 1012 hPa | 0.25 mm | - | 12 W/m² | - |
| 1777643251 | 12.78° C | 87% | 1012 hPa | 0 mm | - | 25 W/m² | - |
| 1777642590 | 12.78° C | 87% | 1012 hPa | 1.27 mm | - | 28 W/m² | - |
| 1777641929 | 12.78° C | 87% | 1012.1 hPa | 1.78 mm | - | 12 W/m² | - |
| 1777641269 | 12.78° C | 87% | 1012 hPa | 1.78 mm | - | 14 W/m² | - |
| 1777640608 | 12.78° C | 87% | 1011.8 hPa | 1.78 mm | - | 25 W/m² | - |
| 1777639948 | 12.78° C | 87% | 1010.6 hPa | 1.78 mm | - | 21 W/m² | - |
| 1777639287 | 12.78° C | 87% | 1010.7 hPa | 1.02 mm | - | 7 W/m² | - |
| 1777638626 | 12.78° C | 86% | 1012.6 hPa | 0.25 mm | - | 0 W/m² | - |
| 1777637966 | 12.78° C | 86% | 1011.8 hPa | 0 mm | - | 0 W/m² | - |
| 1777637305 | 13.33° C | 86% | 1011.1 hPa | 0 mm | - | 0 W/m² | - |
* Rain latest hour (hover to see other rain measurements)
** Current wind speed in m/s (hover to see current wind gust speed)